Tracking 34171 objects as of 21-May-2026
HD Live streaming from Space Station
objects crossing your sky now

KUIPER-00430

Track KUIPER-00430 now!
10-day predictions
KUIPER-00430 is classified as:


NORAD ID: 68935
Int'l Code: 2026-098S
Perigee: 466.0 km
Apogee: 493.7 km
Inclination: 51.9 °
Period: 94.1 minutes
Semi major axis: 6850 km
RCS: Unknown
Launch date: April 30, 2026
Source: United States (US)
Launch site: AIR FORCE EASTERN TEST RANGE (AFETR)
Your satellite tracking list
Your tracking list is empty




NASA's NSSDC Master Catalog

Two Line Element Set (TLE):
1 68935U 26098S   26140.66599349 -.00001096  00000-0 -23484-4 0  9993
2 68935  51.8749 200.7976 0020223  60.6204 299.6796 15.31027905  3111
Source of the keplerian elements: AFSPC